Regional Weather Roundup
Issued by NWS Northern Indiana

Home | Current Version | Previous Version | Graphics & Text | Print | Product List | Glossary On
Versions: 1 2 3 4 5 6 7 8 9 10 11 12 13 14 15 16 17 18 19 20 21 22 23 24 25 26 27 28 29 30 31 32 33 34 35 36 37 38 39 40 41 42 43 44 45 46 47 48 49 50
000
ASUS43 KIWX 030200
RWRIWX

KIWX WEATHER ROUNDUP
NATIONAL WEATHER SERVICE NORTHERN INDIANA
1000 PM EDT SUN AUG 02 2015

NOTE: "FAIR" INDICATES FEW OR NO CLOUDS BELOW 12,000 FEET WITH NO
SIGNIFICANT WEATHER AND/OR OBSTRUCTIONS TO VISIBILITY.

* THESE STATIONS ARE NOT UNDER NWS QUALITY CONTROL. THEY ALSO MAY NOT
  REPORT WEATHER SUCH AS PRECIPITATION OR FOG.

INZ001>027-030300-
NORTHERN INDIANA

CITY           SKY/WX    TMP DP  RH WIND       PRES   REMARKS
LAPORTE*       MOCLDY    82  69  66 SW10G16   29.72S
KNOX*          PTCLDY    81  64  57 SW14      29.72R
SOUTH BEND     MOCLDY    83  68  60 SW14      29.70S
GOSHEN         PTCLDY    80  67  64 S14       29.72S
MONTICELLO*    CLEAR     81  69  67 S10       29.76S
LOGANSPORT*    CLEAR     77  64  65 S10       29.78S
WARSAW*        CLEAR     81  68  65 S6        29.74S
ANGOLA*        CLEAR     81  75  83 SW15      29.72S
FORT WAYNE     PTCLDY    79  65  62 S14       29.78F

$$
INZ028>050-030300-
CENTRAL INDIANA

CITY           SKY/WX    TMP DP  RH WIND       PRES   REMARKS
LAFAYETTE      CLEAR     79  69  71 S7        29.78S
KOKOMO*        CLEAR     79  66  65 S13       29.80S
MUNCIE*        CLEAR     77  64  64 S8        29.83F
INDIANAPOLIS   PTCLDY    78  65  63 S13       29.84R

$$
MIZ043>046-050>051-056>058-064>065-071>073-077>080-030300-
SOUTHWEST LOWER MICHIGAN

CITY           SKY/WX    TMP DP  RH WIND       PRES   REMARKS
BATTLE CREEK   CLOUDY    83  65  54 SW18G28   29.67R
BENTON HARBOR  CLOUDY    84  69  60 SW20G29   29.65F
COLDWATER*     PTCLDY    80  63  56 SW14      29.71R
HILLSDALE*     PTCLDY    81  66  60 SW14G21   29.72R
HOLLAND        TSTM      66  64  93 W9        29.69R FOG
GRAND RAPIDS   TSTM      65  64  97 S12G20    29.65F FOG
KALAMAZOO      CLOUDY    83  65  54 SW17G28   29.65F
STURGIS*       PTCLDY    81  64  57 SW15G24   29.71R
THREE RIVERS*  FAIR      82  66  57 SW16G28   29.69R

$$
OHZ001>008-015>018-024>025-030300-
NORTHWEST OHIO

CITY           SKY/WX    TMP DP  RH WIND       PRES   REMARKS
DEFIANCE       PTCLDY    82  65  56 S18G26    29.74F
FINDLAY        CLEAR     78  61  55 S15       29.78F
TOLEDO EXPRESS PTCLDY    80  64  58 SW17G28   29.72F
TOLEDO METCALF PTCLDY    81  63  54 S15G26    29.74F
LIMA           CLEAR     76  62  62 S10       29.83S

$$
AND FOR LAKE MICHIGAN COASTAL AND OPEN LAKE BUOY OBSERVATIONS

STATION/POSITION TEMP    WIND        PRES    VSBY  WAVE
                 AIR SEA DIR/SP/G                  HT/PER
                 (F)     (DEG/KT/KT) (MB)    (MI)  (FT/S)
CALUMET HARBOR    86     220/ 10/ 19   N/A
MICHIGAN CITY     84     190/ 23/ 26   N/A
BURNS HARBOR      84     220/ 19     1005.4S
SAINT JOSEPH      80     190/ 18/ 22 1004.7R
4 MI NW BRIDGMAN  79 73  250/ 19/ 21   N/A           5/ 5
MICHIGAN CITY     81 74  230/ 16/ 21   N/A           5/ 4

$$
&&


USA.gov is the U.S. government's official web portal to all federal, state and local government web resources and services.